Tracking 19909 objects as of 21-Oct-2019
HD Live streaming from Space Station
objects crossing your sky now

THORAD DELTA 1 DEB

Track THORAD DELTA 1 DEB now!
10-day predictions


NORAD ID: 8174
Int'l Code: 1974-089AQ
Perigee: 1,407.5 km
Apogee: 1,510.5 km
Inclination: 101.6 °
Period: 114.9 minutes
Semi major axis: 7829 km
RCS: 0.0214 m2 (small)
Launch date: November 15, 1974
Source: United States (US)
Launch site: AIR FORCE WESTERN TEST RANGE (AFWTR)

Note: This is SATELLITE DEBRIS
aabbcc
Your satellite tracking list
Your tracking list is empty




NASA's NSSDC Master Catalog

Two Line Element Set (TLE):
1  8174U 74089AQ  19292.87480017 +.00000005 +00000-0 +31015-3 0  9994
2  8174 101.6378 260.3971 0065806 326.3703 062.1425 12.53030916053542
Source of the keplerian elements: AFSPC